Location: Franzen
(48.6167°N, 15.3833°E)
Time: 10:07:21
(UTC+00:00)

Cosmos 1633 Rocket - Pass Details

Date: 22 April 2021
Orbit: 607 x 623 km, 82.5° (Epoch: 16 May)

Event Time Altitude Azimuth Distance (km) Brightness Sun altitude
Rises 21:56:41 0° 351° (N) 2,881 7.8 -27.4°
Reaches altitude 10° 21:58:54 10° 352° (N) 1,973 6.6 -27.5°
Enters shadow 22:02:13 51° 1° (N) 773 3.8 -27.7°
